QPF
0.00 0.00 0.00 0.00 0.00 0.00 0.00 0.00 0.01 0.01 0.00 0.00 0.00 0.00 0.00 0.00 0.00 0.00 0.00 0.00 0.00 0.00 0.00 0.00 0.00 0.01 0.01 0.00 0.00 0.00 0.00 0.00 0.00 0.01 0.01 0.01 0.01 0.01 0.01 0.00 0.00 0.01 0.01
0.00 0.00 0.00 0.00 0.00 0.00 0.00 0.01 0.01 0.01 0.01 0.00 0.00 0.00 0.00 0.00 0.00 0.00 0.00 0.00 0.00 0.00 0.00 0.00 0.01 0.02 0.02 0.01 0.00 0.00 0.00 0.01 0.00 0.00 0.00 0.01 0.01 0.01 0.01 0.00 0.00 0.01 0.00
0.00 0.00 0.00 0.00 0.00 0.00 0.00 0.00 0.01 0.01 0.00 0.00 0.00 0.00 0.00 0.00 0.00 0.00 0.00 0.00 0.00 0.00 0.00 0.00 0.00 0.03 0.04 0.02 0.00 0.00 0.00 0.00 0.00 0.00 0.00 0.00 0.00 0.01 0.00 0.00 0.01 0.01 0.01
0.00 0.00 0.00 0.00 0.00 0.00 0.00 0.00 0.01 0.01 0.00 0.01 0.01 0.01 0.00 0.00 0.00 0.00 0.00 0.00 0.00 0.00 0.00 0.00 0.00 0.01 0.04 0.04 0.02 0.01 0.00 0.00 0.00 0.00 0.00 0.00 0.01 0.01 0.01 0.01 0.01 0.03 0.02
0.00 0.00 0.00 0.00 0.00 0.00 0.00 0.00 0.00 0.01 0.01 0.02 0.02 0.01 0.00 0.00 0.00 0.00 0.00 0.00 0.00 0.00 0.00 0.00 0.00 0.00 0.01 0.02 0.03 0.02 0.02 0.02 0.02 0.01 0.02 0.02 0.01 0.01 0.01 0.01 0.02 0.06 0.05
0.00 0.01 0.01 0.01 0.00 0.00 0.00 0.00 0.01 0.01 0.02 0.02 0.01 0.01 0.00 0.00 0.00 0.00 0.00 0.00 0.00 0.00 0.00 0.00 0.00 0.00 0.00 0.00 0.01 0.00 0.01 0.01 0.01 0.01 0.00 0.00 0.00 0.00 0.01 0.01 0.02 0.04 0.05
0.01 0.01 0.01 0.01 0.01 0.00 0.00 0.01 0.01 0.01 0.02 0.01 0.01 0.01 0.00 0.00 0.00 0.00 0.00 0.00 0.00 0.00 0.00 0.00 0.00 0.00 0.00 0.00 0.00 0.00 0.00 0.00 0.01 0.00 0.00 0.00 0.00 0.00 0.00 0.01 0.01 0.02 0.03
0.01 0.01 0.01 0.01 0.01 0.01 0.01 0.02 0.02 0.02 0.02 0.01 0.01 0.00 0.00 0.00 0.00 0.00 0.00 0.00 0.00 0.00 0.00 0.00 0.00 0.00 0.00 0.00 0.00 0.00 0.00 0.00 0.00 0.00 0.00 0.00 0.00 0.00 0.00 0.00 0.00 0.01 0.01
0.01 0.01 0.01 0.01 0.01 0.02 0.02 0.02 0.02 0.02 0.01 0.01 0.01 0.00 0.00 0.00 0.00 0.00 0.00 0.00 0.00 0.00 0.00 0.00 0.00 0.00 0.00 0.00 0.00 0.00 0.00 0.00 0.00 0.00 0.00 0.00 0.00 0.00 0.00 0.00 0.00 0.00 0.00
0.00 0.01 0.01 0.01 0.01 0.01 0.01 0.01 0.01 0.01 0.01 0.01 0.01 0.00 0.00 0.00 0.00 0.00 0.00 0.00 0.00 0.00 0.00 0.00 0.00 0.00 0.00 0.00 0.00 0.00 0.00 0.00 0.00 0.00 0.00 0.00 0.00 0.00 0.00 0.00 0.00 0.00 0.01
0.00 0.00 0.00 0.00 0.00 0.01 0.01 0.01 0.01 0.01 0.01 0.01 0.01 0.00 0.00 0.00 0.00 0.00 0.00 0.00 0.00 0.00 0.00 0.00 0.00 0.00 0.00 0.00 0.00 0.00 0.00 0.00 0.00 0.00 0.00 0.00 0.00 0.00 0.00 0.00 0.00 0.00 0.01
0.00 0.00 0.00 0.00 0.01 0.01 0.01 0.02 0.02 0.02 0.01 0.01 0.01 0.00 0.00 0.00 0.00 0.00 0.00 0.00 0.00 0.00 0.00 0.00 0.00 0.00 0.00 0.00 0.00 0.00 0.00 0.00 0.00 0.00 0.00 0.00 0.00 0.00 0.00 0.00 0.00 0.00 0.00
0.01 0.01 0.01 0.01 0.01 0.01 0.01 0.02 0.01 0.01 0.01 0.01 0.01 0.00 0.00 0.00 0.00 0.00 0.00 0.00 0.00 0.00 0.00 0.00 0.00 0.00 0.00 0.00 0.00 0.00 0.00 0.00 0.00 0.00 0.00 0.00 0.00 0.00 0.00 0.00 0.00 0.00 0.00
0.01 0.01 0.01 0.01 0.00 0.00 0.01 0.01 0.01 0.01 0.01 0.01 0.01 0.00 0.01 0.01 0.00 0.00 0.00 0.00 0.00 0.00 0.00 0.00 0.00 0.00 0.00 0.00 0.00 0.00 0.00 0.00 0.00 0.00 0.00 0.00 0.00 0.00 0.00 0.00 0.00 0.00 0.00
0.01 0.01 0.01 0.01 0.01 0.01 0.01 0.01 0.01 0.01 0.01 0.01 0.01 0.00 0.00 0.00 0.00 0.00 0.00 0.00 0.00 0.00 0.00 0.00 0.00 0.00 0.00 0.00 0.00 0.00 0.00 0.00 0.00 0.00 0.00 0.00 0.00 0.00 0.00 0.00 0.00 0.01 0.01
0.01 0.01 0.01 0.01 0.01 0.01 0.01 0.01 0.02 0.02 0.01 0.01 0.01 0.01 0.00 0.00 0.00 0.00 0.00 0.00 0.00 0.00 0.00 0.00 0.00 0.00 0.00 0.00 0.00 0.00 0.00 0.00 0.00 0.00 0.00 0.00 0.00 0.00 0.00 0.00 0.00 0.01 0.01
0.00 0.01 0.01 0.00 0.01 0.01 0.01 0.01 0.01 0.01 0.01 0.00 0.00 0.00 0.00 0.00 0.00 0.00 0.00 0.00 0.00 0.00 0.00 0.00 0.00 0.00 0.00 0.00 0.00 0.00 0.00 0.00 0.00 0.00 0.00 0.00 0.00 0.00 0.00 0.00 0.00 0.00 0.00
0.00 0.01 0.01 0.01 0.01 0.01 0.01 0.01 0.01 0.00 0.00 0.00 0.00 0.00 0.00 0.00 0.00 0.00 0.00 0.00 0.00 0.00 0.00 0.00 0.00 0.00 0.00 0.00 0.00 0.00 0.00 0.00 0.00 0.00 0.00 0.00 0.01 0.01 0.02 0.01 0.01 0.01 0.01
0.00 0.00 0.01 0.01 0.01 0.01 0.01 0.00 0.01 0.01 0.00 0.00 0.01 0.00 0.00 0.00 0.00 0.00 0.00 0.00 0.00 0.00 0.00 0.00 0.00 0.00 0.01 0.01 0.01 0.01 0.01 0.00 0.00 0.00 0.01 0.01 0.01 0.01 0.02 0.02 0.02 0.02 0.02
0.00 0.00 0.00 0.01 0.01 0.00 0.00 0.00 0.00 0.00 0.00 0.00 0.00 0.00 0.00 0.00 0.00 0.00 0.00 0.00 0.00 0.00 0.00 0.00 0.00 0.00 0.01 0.01 0.01 0.01 0.01 0.01 0.01 0.01 0.01 0.01 0.01 0.01 0.02 0.03 0.03 0.03 0.03
0.01 0.00 0.01 0.01 0.00 0.00 0.00 0.00 0.00 0.00 0.00 0.00 0.00 0.01 0.00 0.00 0.00 0.00 0.00 0.00 0.00 0.00 0.00 0.00 0.00 0.00 0.01 0.01 0.01 0.01 0.01 0.01 0.01 0.01 0.01 0.01 0.01 0.01 0.02 0.02 0.03 0.03 0.03
0.01 0.02 0.01 0.01 0.01 0.01 0.01 0.00 0.00 0.00 0.00 0.00 0.00 0.01 0.00 0.00 0.00 0.00 0.00 0.00 0.00 0.00 0.00 0.00 0.00 0.00 0.00 0.00 0.00 0.00 0.01 0.01 0.01 0.01 0.01 0.01 0.01 0.01 0.01 0.02 0.03 0.03 0.03
0.01 0.01 0.02 0.01 0.01 0.00 0.00 0.00 0.00 0.00 0.00 0.00 0.00 0.00 0.00 0.00 0.00 0.00 0.00 0.00 0.00 0.00 0.00 0.00 0.00 0.00 0.00 0.00 0.00 0.01 0.01 0.01 0.01 0.01 0.01 0.01 0.01 0.02 0.02 0.03 0.03 0.04 0.03
0.01 0.01 0.01 0.01 0.01 0.00 0.00 0.00 0.00 0.00 0.00 0.00 0.00 0.00 0.00 0.01 0.01 0.00 0.01 0.00 0.00 0.00 0.00 0.00 0.00 0.01 0.00 0.01 0.01 0.01 0.01 0.02 0.02 0.02 0.02 0.02 0.03 0.03 0.03 0.04 0.04 0.04 0.04
0.01 0.01 0.01 0.01 0.01 0.01 0.00 0.00 0.00 0.00 0.00 0.00 0.00 0.00 0.00 0.01 0.01 0.01 0.01 0.01 0.01 0.00 0.01 0.01 0.01 0.01 0.01 0.01 0.01 0.01 0.01 0.01 0.02 0.02 0.02 0.03 0.04 0.04 0.05 0.05 0.05 0.05 0.05
0.01 0.01 0.01 0.01 0.01 0.01 0.00 0.00 0.00 0.00 0.00 0.00 0.00 0.00 0.00 0.00 0.00 0.01 0.01 0.02 0.01 0.01 0.01 0.01 0.01 0.01 0.01 0.01 0.01 0.01 0.01 0.02 0.02 0.02 0.03 0.04 0.05 0.05 0.06 0.06 0.06 0.06 0.06
MSLP
1018.09 1018.52 1018.99 1019.48 1019.96 1020.41 1020.82 1021.18 1021.50 1021.79 1022.06 1022.31 1022.54 1022.75 1022.93 1023.08 1023.20 1023.30 1023.37 1023.42 1023.46 1023.51 1023.56 1023.62 1023.69 1023.78 1023.89 1024.01 1024.15 1024.31 1024.47 1024.64 1024.78 1024.88 1024.90 1024.84 1024.67 1024.40 1024.04 1023.62 1023.16 1022.71 1022.31
1018.02 1018.44 1018.90 1019.37 1019.83 1020.27 1020.67 1021.03 1021.36 1021.66 1021.94 1022.20 1022.45 1022.68 1022.90 1023.10 1023.27 1023.42 1023.55 1023.64 1023.72 1023.78 1023.83 1023.88 1023.92 1023.97 1024.04 1024.13 1024.26 1024.41 1024.59 1024.79 1024.97 1025.12 1025.21 1025.22 1025.12 1024.93 1024.64 1024.29 1023.91 1023.52 1023.16
1017.93 1018.35 1018.80 1019.26 1019.71 1020.14 1020.54 1020.89 1021.22 1021.51 1021.78 1022.04 1022.29 1022.53 1022.76 1022.99 1023.20 1023.39 1023.56 1023.70 1023.82 1023.91 1023.98 1024.02 1024.06 1024.10 1024.15 1024.23 1024.34 1024.50 1024.69 1024.91 1025.12 1025.32 1025.46 1025.52 1025.49 1025.36 1025.15 1024.87 1024.54 1024.21 1023.89
1017.77 1018.20 1018.65 1019.11 1019.55 1019.98 1020.36 1020.72 1021.03 1021.31 1021.57 1021.81 1022.04 1022.27 1022.50 1022.73 1022.95 1023.17 1023.38 1023.56 1023.72 1023.84 1023.94 1024.01 1024.06 1024.11 1024.16 1024.25 1024.36 1024.52 1024.72 1024.95 1025.19 1025.41 1025.59 1025.70 1025.73 1025.66 1025.52 1025.31 1025.05 1024.78 1024.50
1017.53 1017.96 1018.41 1018.87 1019.31 1019.73 1020.11 1020.45 1020.75 1021.02 1021.26 1021.47 1021.68 1021.89 1022.10 1022.31 1022.54 1022.76 1022.99 1023.20 1023.39 1023.55 1023.69 1023.80 1023.88 1023.96 1024.04 1024.13 1024.26 1024.43 1024.63 1024.86 1025.11 1025.35 1025.55 1025.70 1025.78 1025.79 1025.72 1025.59 1025.41 1025.20 1024.98
1017.23 1017.64 1018.08 1018.52 1018.95 1019.36 1019.74 1020.07 1020.36 1020.61 1020.83 1021.03 1021.21 1021.38 1021.56 1021.76 1021.96 1022.18 1022.41 1022.63 1022.85 1023.05 1023.23 1023.38 1023.51 1023.62 1023.73 1023.85 1023.99 1024.16 1024.37 1024.59 1024.83 1025.07 1025.30 1025.48 1025.61 1025.68 1025.69 1025.64 1025.55 1025.43 1025.27
1016.88 1017.26 1017.67 1018.08 1018.49 1018.88 1019.24 1019.56 1019.84 1020.08 1020.29 1020.47 1020.62 1020.77 1020.92 1021.08 1021.26 1021.46 1021.67 1021.90 1022.13 1022.36 1022.57 1022.76 1022.93 1023.09 1023.23 1023.38 1023.53 1023.70 1023.90 1024.11 1024.34 1024.57 1024.80 1025.00 1025.18 1025.31 1025.40 1025.45 1025.45 1025.42 1025.35
1016.54 1016.87 1017.22 1017.59 1017.96 1018.32 1018.65 1018.96 1019.22 1019.46 1019.65 1019.81 1019.95 1020.08 1020.20 1020.33 1020.47 1020.64 1020.83 1021.05 1021.28 1021.52 1021.75 1021.98 1022.18 1022.38 1022.55 1022.72 1022.88 1023.05 1023.23 1023.42 1023.63 1023.85 1024.07 1024.29 1024.50 1024.69 1024.85 1024.99 1025.08 1025.14 1025.16
1016.28 1016.53 1016.81 1017.11 1017.42 1017.73 1018.03 1018.30 1018.55 1018.77 1018.96 1019.11 1019.23 1019.34 1019.43 1019.53 1019.64 1019.77 1019.93 1020.12 1020.34 1020.57 1020.82 1021.06 1021.30 1021.52 1021.72 1021.90 1022.07 1022.24 1022.40 1022.57 1022.75 1022.95 1023.16 1023.39 1023.62 1023.85 1024.08 1024.29 1024.47 1024.62 1024.72
1016.16 1016.32 1016.51 1016.72 1016.95 1017.19 1017.43 1017.66 1017.88 1018.08 1018.24 1018.38 1018.49 1018.57 1018.64 1018.70 1018.77 1018.87 1018.99 1019.15 1019.34 1019.56 1019.81 1020.06 1020.31 1020.55 1020.77 1020.97 1021.14 1021.30 1021.45 1021.60 1021.76 1021.93 1022.13 1022.36 1022.60 1022.87 1023.14 1023.40 1023.65 1023.87 1024.04
1016.23 1016.28 1016.36 1016.47 1016.61 1016.76 1016.93 1017.10 1017.27 1017.42 1017.56 1017.66 1017.74 1017.79 1017.82 1017.85 1017.88 1017.93 1018.01 1018.13 1018.30 1018.50 1018.73 1018.99 1019.25 1019.50 1019.73 1019.93 1020.11 1020.27 1020.41 1020.55 1020.69 1020.85 1021.04 1021.25 1021.51 1021.79 1022.09 1022.39 1022.68 1022.95 1023.17
1016.50 1016.44 1016.41 1016.41 1016.43 1016.49 1016.56 1016.65 1016.74 1016.83 1016.91 1016.96 1016.99 1017.00 1016.98 1016.96 1016.94 1016.94 1016.98 1017.06 1017.19 1017.37 1017.59 1017.84 1018.10 1018.36 1018.60 1018.82 1019.01 1019.16 1019.30 1019.43 1019.57 1019.72 1019.90 1020.12 1020.37 1020.66 1020.97 1021.29 1021.61 1021.90 1022.15
1016.98 1016.81 1016.66 1016.54 1016.45 1016.38 1016.35 1016.33 1016.33 1016.33 1016.32 1016.30 1016.25 1016.19 1016.11 1016.02 1015.95 1015.90 1015.88 1015.92 1016.02 1016.17 1016.37 1016.61 1016.87 1017.13 1017.38 1017.61 1017.80 1017.97 1018.12 1018.25 1018.39 1018.54 1018.73 1018.94 1019.20 1019.49 1019.81 1020.14 1020.46 1020.75 1021.01
1017.62 1017.34 1017.09 1016.85 1016.64 1016.45 1016.30 1016.16 1016.04 1015.93 1015.81 1015.68 1015.54 1015.38 1015.22 1015.06 1014.91 1014.80 1014.74 1014.73 1014.79 1014.91 1015.09 1015.31 1015.56 1015.81 1016.06 1016.29 1016.50 1016.67 1016.83 1016.97 1017.12 1017.28 1017.48 1017.70 1017.97 1018.26 1018.58 1018.91 1019.22 1019.51 1019.77
1018.36 1018.00 1017.64 1017.30 1016.98 1016.68 1016.40 1016.13 1015.88 1015.64 1015.39 1015.14 1014.88 1014.61 1014.35 1014.10 1013.88 1013.70 1013.57 1013.52 1013.54 1013.62 1013.77 1013.96 1014.18 1014.42 1014.66 1014.88 1015.07 1015.25 1015.41 1015.57 1015.73 1015.90 1016.11 1016.35 1016.63 1016.93 1017.25 1017.58 1017.89 1018.18 1018.42
1019.14 1018.70 1018.27 1017.84 1017.43 1017.02 1016.63 1016.25 1015.87 1015.49 1015.11 1014.73 1014.34 1013.96 1013.59 1013.24 1012.93 1012.68 1012.49 1012.38 1012.34 1012.38 1012.47 1012.62 1012.80 1012.99 1013.19 1013.38 1013.55 1013.71 1013.86 1014.01 1014.18 1014.37 1014.59 1014.84 1015.14 1015.45 1015.78 1016.12 1016.43 1016.72 1016.96
1019.88 1019.40 1018.91 1018.43 1017.94 1017.46 1016.98 1016.49 1016.00 1015.50 1014.99 1014.49 1013.98 1013.48 1013.01 1012.56 1012.17 1011.84 1011.58 1011.40 1011.30 1011.27 1011.30 1011.37 1011.48 1011.60 1011.73 1011.85 1011.97 1012.09 1012.20 1012.34 1012.49 1012.68 1012.91 1013.18 1013.49 1013.82 1014.16 1014.51 1014.84 1015.13 1015.39
1020.54 1020.03 1019.52 1019.01 1018.48 1017.95 1017.40 1016.83 1016.26 1015.66 1015.06 1014.45 1013.84 1013.24 1012.68 1012.15 1011.68 1011.28 1010.95 1010.69 1010.51 1010.39 1010.33 1010.30 1010.31 1010.33 1010.35 1010.38 1010.41 1010.45 1010.51 1010.59 1010.72 1010.89 1011.11 1011.39 1011.70 1012.05 1012.41 1012.77 1013.11 1013.42 1013.70
1021.08 1020.57 1020.06 1019.53 1019.00 1018.44 1017.86 1017.25 1016.62 1015.96 1015.29 1014.61 1013.93 1013.26 1012.63 1012.04 1011.50 1011.03 1010.63 1010.29 1010.02 1009.80 1009.62 1009.48 1009.35 1009.24 1009.13 1009.03 1008.95 1008.88 1008.86 1008.87 1008.95 1009.08 1009.28 1009.54 1009.85 1010.20 1010.57 1010.94 1011.29 1011.63 1011.93
1021.47 1020.98 1020.48 1019.97 1019.44 1018.89 1018.30 1017.68 1017.02 1016.34 1015.63 1014.92 1014.20 1013.50 1012.82 1012.19 1011.61 1011.08 1010.61 1010.19 1009.82 1009.49 1009.19 1008.91 1008.63 1008.37 1008.11 1007.87 1007.65 1007.47 1007.34 1007.27 1007.27 1007.35 1007.51 1007.74 1008.03 1008.36 1008.72 1009.09 1009.45 1009.80 1010.12
1021.72 1021.25 1020.78 1020.29 1019.77 1019.23 1018.66 1018.04 1017.39 1016.71 1016.00 1015.28 1014.56 1013.85 1013.17 1012.52 1011.90 1011.34 1010.81 1010.32 1009.86 1009.42 1008.99 1008.57 1008.15 1007.73 1007.32 1006.94 1006.58 1006.28 1006.04 1005.87 1005.79 1005.81 1005.91 1006.09 1006.34 1006.64 1006.97 1007.32 1007.67 1008.01 1008.34
1021.83 1021.37 1020.91 1020.44 1019.95 1019.43 1018.87 1018.27 1017.64 1016.97 1016.29 1015.59 1014.89 1014.20 1013.52 1012.87 1012.25 1011.66 1011.09 1010.55 1010.01 1009.47 1008.93 1008.39 1007.84 1007.29 1006.75 1006.23 1005.76 1005.34 1005.00 1004.74 1004.58 1004.52 1004.56 1004.68 1004.87 1005.11 1005.40 1005.70 1006.02 1006.34 1006.65
1021.79 1021.34 1020.89 1020.43 1019.94 1019.42 1018.87 1018.29 1017.68 1017.04 1016.38 1015.72 1015.05 1014.39 1013.74 1013.11 1012.50 1011.90 1011.32 1010.73 1010.13 1009.53 1008.91 1008.27 1007.62 1006.97 1006.33 1005.72 1005.16 1004.66 1004.24 1003.91 1003.68 1003.55 1003.52 1003.57 1003.69 1003.86 1004.07 1004.32 1004.57 1004.84 1005.12
1021.64 1021.18 1020.72 1020.24 1019.75 1019.22 1018.67 1018.09 1017.49 1016.87 1016.24 1015.60 1014.97 1014.34 1013.73 1013.12 1012.53 1011.94 1011.35 1010.74 1010.12 1009.47 1008.81 1008.12 1007.41 1006.71 1006.02 1005.36 1004.75 1004.20 1003.73 1003.36 1003.07 1002.88 1002.78 1002.76 1002.80 1002.89 1003.02 1003.18 1003.36 1003.56 1003.78
1021.40 1020.92 1020.43 1019.92 1019.40 1018.85 1018.28 1017.69 1017.09 1016.47 1015.85 1015.23 1014.63 1014.03 1013.44 1012.86 1012.29 1011.72 1011.13 1010.53 1009.90 1009.24 1008.56 1007.86 1007.15 1006.43 1005.73 1005.06 1004.45 1003.89 1003.41 1003.01 1002.69 1002.46 1002.30 1002.21 1002.17 1002.17 1002.21 1002.28 1002.38 1002.50 1002.65
1021.10 1020.59 1020.06 1019.52 1018.96 1018.38 1017.78 1017.16 1016.54 1015.91 1015.29 1014.68 1014.08 1013.49 1012.92 1012.36 1011.80 1011.24 1010.66 1010.07 1009.46 1008.82 1008.15 1007.47 1006.78 1006.09 1005.42 1004.78 1004.18 1003.65 1003.17 1002.77 1002.44 1002.18 1001.98 1001.82 1001.71 1001.64 1001.59 1001.57 1001.58 1001.62 1001.70
Thickness
5712 5709 5707 5705 5703 5701 5699 5697 5695 5694 5692 5690 5688 5686 5684 5682 5680 5677 5675 5673 5670 5668 5666 5663 5661 5659 5656 5654 5651 5648 5645 5642 5639 5639 5641 5645 5647 5650 5652 5655 5657 5659 5661
5711 5708 5705 5703 5700 5698 5696 5694 5693 5691 5689 5687 5685 5683 5681 5678 5676 5674 5671 5669 5666 5664 5661 5659 5657 5655 5652 5649 5646 5644 5641 5638 5635 5635 5636 5638 5641 5643 5645 5648 5650 5653 5655
5708 5705 5702 5700 5698 5696 5694 5692 5690 5688 5686 5684 5682 5679 5677 5675 5672 5670 5668 5665 5662 5660 5657 5655 5652 5650 5647 5644 5642 5639 5636 5635 5632 5630 5630 5632 5634 5636 5638 5641 5644 5645 5648
5706 5703 5700 5698 5696 5694 5691 5689 5687 5685 5682 5680 5678 5676 5673 5671 5669 5666 5664 5661 5658 5656 5653 5651 5648 5646 5643 5641 5638 5634 5632 5629 5627 5625 5625 5626 5627 5629 5630 5632 5635 5637 5639
5704 5701 5699 5696 5693 5691 5688 5686 5684 5681 5679 5677 5674 5671 5669 5667 5665 5662 5660 5657 5653 5651 5648 5647 5644 5642 5640 5637 5634 5630 5627 5624 5621 5620 5619 5619 5620 5621 5622 5623 5625 5628 5631
5702 5699 5697 5693 5690 5687 5685 5682 5679 5677 5675 5672 5669 5667 5665 5664 5662 5660 5657 5653 5649 5646 5643 5641 5639 5637 5635 5633 5630 5627 5624 5620 5617 5615 5613 5613 5613 5614 5615 5616 5616 5618 5621
5699 5697 5694 5690 5687 5684 5681 5678 5675 5673 5670 5667 5665 5662 5660 5659 5658 5656 5653 5648 5644 5641 5638 5635 5634 5632 5629 5626 5624 5622 5619 5616 5615 5611 5608 5607 5607 5608 5608 5608 5608 5609 5611
5697 5694 5691 5687 5684 5680 5677 5674 5671 5668 5665 5663 5660 5658 5656 5655 5654 5651 5648 5643 5639 5636 5633 5630 5627 5624 5622 5620 5617 5614 5611 5609 5608 5606 5604 5603 5603 5602 5601 5601 5602 5602 5604
5694 5691 5688 5685 5681 5677 5673 5671 5668 5664 5661 5659 5657 5654 5651 5650 5649 5646 5642 5637 5633 5630 5628 5625 5621 5618 5617 5614 5610 5607 5605 5603 5602 5600 5599 5597 5596 5596 5595 5594 5593 5593 5595
5692 5689 5686 5682 5678 5675 5672 5668 5664 5661 5658 5655 5652 5649 5647 5645 5643 5640 5637 5632 5627 5624 5621 5619 5617 5613 5611 5608 5604 5600 5597 5596 5594 5593 5591 5590 5589 5588 5587 5585 5584 5582 5583
5689 5686 5682 5679 5675 5672 5667 5663 5660 5656 5652 5649 5647 5644 5641 5639 5637 5635 5631 5626 5622 5618 5615 5612 5610 5608 5605 5602 5598 5594 5592 5590 5587 5585 5583 5581 5580 5579 5578 5577 5575 5574 5574
5683 5680 5677 5673 5670 5667 5662 5657 5654 5650 5645 5642 5639 5637 5635 5633 5631 5628 5626 5622 5618 5613 5610 5607 5604 5602 5599 5595 5592 5589 5586 5583 5579 5575 5573 5571 5570 5569 5569 5568 5567 5566 5566
5676 5673 5670 5667 5663 5660 5656 5651 5646 5642 5639 5636 5632 5630 5628 5627 5624 5622 5619 5616 5612 5607 5604 5601 5598 5594 5591 5587 5584 5581 5577 5573 5569 5566 5564 5563 5561 5560 5559 5558 5558 5557 5557
5668 5665 5662 5658 5655 5652 5648 5645 5640 5636 5632 5629 5626 5624 5621 5619 5616 5614 5610 5607 5604 5600 5596 5593 5589 5585 5581 5577 5574 5571 5567 5563 5559 5557 5556 5554 5552 5550 5548 5546 5546 5545 5545
5659 5656 5653 5650 5646 5643 5640 5637 5634 5632 5629 5625 5622 5618 5614 5611 5611 5608 5603 5599 5595 5591 5586 5581 5577 5573 5569 5566 5563 5559 5556 5553 5550 5547 5545 5543 5540 5538 5537 5535 5533 5532 5532
5650 5646 5643 5640 5637 5633 5630 5627 5625 5623 5621 5619 5616 5612 5609 5607 5604 5600 5596 5592 5587 5582 5575 5569 5566 5562 5559 5555 5552 5549 5546 5543 5541 5538 5535 5532 5529 5527 5525 5524 5521 5519 5520
5641 5637 5634 5631 5628 5624 5620 5617 5614 5612 5611 5609 5606 5603 5600 5597 5593 5589 5585 5581 5576 5571 5563 5559 5555 5552 5548 5545 5541 5538 5536 5533 5530 5527 5524 5521 5519 5516 5513 5512 5510 5508 5508
5631 5629 5625 5621 5618 5614 5611 5607 5604 5600 5597 5595 5593 5591 5588 5585 5581 5577 5573 5568 5562 5557 5551 5547 5544 5540 5537 5533 5530 5528 5525 5522 5519 5516 5513 5511 5508 5505 5502 5501 5499 5498 5498
5620 5617 5614 5611 5607 5603 5599 5596 5592 5589 5585 5581 5578 5576 5574 5571 5567 5564 5559 5553 5548 5544 5540 5536 5532 5529 5526 5522 5520 5517 5514 5511 5508 5505 5502 5499 5496 5493 5491 5490 5488 5487 5486
5609 5607 5604 5599 5594 5590 5586 5583 5579 5575 5571 5567 5564 5562 5559 5555 5551 5548 5544 5539 5535 5531 5527 5524 5520 5517 5513 5510 5507 5504 5501 5499 5496 5493 5491 5488 5485 5481 5479 5478 5476 5475 5474
5596 5594 5592 5586 5582 5578 5574 5570 5567 5562 5559 5555 5552 5549 5547 5542 5538 5534 5530 5526 5522 5518 5514 5511 5508 5504 5501 5498 5495 5492 5490 5487 5484 5481 5479 5476 5473 5471 5469 5466 5465 5464 5462
5584 5580 5577 5574 5570 5566 5562 5558 5554 5550 5546 5543 5540 5536 5534 5529 5524 5520 5516 5513 5509 5505 5502 5498 5495 5492 5489 5485 5482 5479 5477 5474 5472 5469 5467 5464 5462 5459 5457 5455 5454 5452 5451
5572 5568 5564 5560 5557 5554 5549 5545 5541 5537 5534 5530 5526 5523 5519 5515 5511 5507 5503 5499 5496 5492 5489 5485 5482 5479 5476 5472 5469 5466 5463 5462 5459 5456 5454 5452 5450 5448 5446 5445 5444 5442 5441
5559 5555 5551 5547 5544 5540 5536 5532 5528 5524 5521 5517 5513 5509 5505 5501 5497 5494 5490 5486 5482 5479 5475 5471 5468 5465 5462 5459 5456 5453 5450 5448 5446 5444 5442 5440 5439 5437 5435 5434 5433 5432 5432
5546 5542 5538 5534 5530 5527 5523 5519 5515 5511 5507 5503 5500 5496 5492 5488 5484 5480 5476 5472 5468 5465 5461 5457 5454 5451 5449 5446 5443 5440 5438 5436 5433 5431 5430 5428 5427 5426 5425 5423 5422 5422 5422
5532 5529 5525 5521 5516 5513 5509 5505 5501 5497 5493 5490 5487 5483 5479 5475 5471 5467 5463 5459 5455 5451 5447 5444 5441 5438 5436 5433 5430 5428 5426 5424 5421 5419 5417 5416 5416 5415 5414 5413 5413 5412 5412